When you browse on this site, cookies collect data to enhance your experience and personalize the content and advertising you see.
Visit our Privacy Policy to learn more. By continuing to use the site, you agree to this use of cookies and data.
  • In Österreich
  • Länderverzeichnis
  • Für 7 Tage
  • Wassertemperatur
  • Satellitenkarten
  • Wetterkarte
  • News
  • Widgets
  • user-avatar
    Anmelden

    Stündliche Wetter Stepanakert

    Heute, 24 März, Sonntag

    Zeit Temperatur Niederschläge Wind Luftdruck Luftfeuchtigkeit
    00:00 +7°C° 0 mm 1 m/S 688 mmHg 68%
    01:00 +6°C° 0 mm 1 m/S 688 mmHg 67%
    02:00 +6°C° 0 mm 1 m/S 687 mmHg 67%
    03:00 +6°C° 0 mm 1 m/S 687 mmHg 59%
    04:00 +6°C° 0 mm 1 m/S 687 mmHg 60%
    05:00 +5°C° 0 mm 1 m/S 687 mmHg 62%
    06:00 +5°C° 0 mm 1 m/S 687 mmHg 64%
    07:00 +6°C° 0 mm 1 m/S 687 mmHg 59%
    08:00 +7°C° 0 mm 2 m/S 687 mmHg 54%
    09:00 +9°C° 0 mm 2 m/S 687 mmHg 53%
    10:00 +9°C° 0 mm 3 m/S 687 mmHg 53%
    11:00 +10°C° 0 mm 3 m/S 686 mmHg 53%
    12:00 +11°C° 0 mm 3 m/S 686 mmHg 53%
    13:00 +10°C° 0 mm 3 m/S 686 mmHg 56%
    14:00 +10°C° 0 mm 3 m/S 686 mmHg 59%
    15:00 +10°C° 0 mm 3 m/S 686 mmHg 62%
    16:00 +9°C° 0.2 mm 3 m/S 686 mmHg 68%
    17:00 +8°C° 0.2 mm 3 m/S 686 mmHg 73%
    18:00 +7°C° 0.2 mm 2 m/S 686 mmHg 78%
    19:00 +7°C° 0.8 mm 2 m/S 686 mmHg 80%
    20:00 +6°C° 0.8 mm 2 m/S 687 mmHg 82%
    21:00 +6°C° 0.8 mm 2 m/S 687 mmHg 84%
    22:00 +6°C° 0.3 mm 2 m/S 687 mmHg 83%
    23:00 +5°C° 0.3 mm 2 m/S 687 mmHg 82%

    Morgen, 25 März, Montag

    Zeit Temperatur Niederschläge Wind Luftdruck Luftfeuchtigkeit
    00:00 +5°C° 0.3 mm 2 m/S 688 mmHg 81%
    01:00 +6°C° 0.1 mm 1 m/S 688 mmHg 81%
    02:00 +5°C° 0.1 mm 1 m/S 688 mmHg 81%
    03:00 +5°C° 0.1 mm 1 m/S 688 mmHg 81%
    04:00 +5°C° 0.1 mm 1 m/S 688 mmHg 81%
    05:00 +5°C° 0.1 mm 1 m/S 688 mmHg 82%
    06:00 +5°C° 0.1 mm 1 m/S 688 mmHg 82%
    07:00 +5°C° 0.3 mm 1 m/S 688 mmHg 81%
    08:00 +5°C° 0.3 mm 1 m/S 688 mmHg 80%
    09:00 +5°C° 0.3 mm 1 m/S 688 mmHg 80%
    10:00 +4°C° 0.5 mm 2 m/S 688 mmHg 81%
    11:00 +4°C° 0.5 mm 2 m/S 688 mmHg 83%
    12:00 +3°C° 0.5 mm 3 m/S 688 mmHg 85%
    13:00 +3°C° 0.4 mm 3 m/S 688 mmHg 84%
    14:00 +3°C° 0.4 mm 3 m/S 687 mmHg 84%
    15:00 +3°C° 0.4 mm 3 m/S 687 mmHg 84%
    16:00 +2°C° 0.3 mm 3 m/S 688 mmHg 85%
    17:00 +2°C° 0.3 mm 3 m/S 688 mmHg 86%
    18:00 +2°C° 0.3 mm 2 m/S 688 mmHg 87%
    19:00 +2°C° 0.4 mm 2 m/S 689 mmHg 88%
    20:00 +2°C° 0.4 mm 2 m/S 689 mmHg 88%
    21:00 +3°C° 0.4 mm 1 m/S 690 mmHg 89%
    22:00 +3°C° 0.4 mm 1 m/S 690 mmHg 89%
    23:00 +3°C° 0.4 mm 1 m/S 690 mmHg 89%

    übermorgen, 26 März, Dienstag

    Zeit Temperatur Niederschläge Wind Luftdruck Luftfeuchtigkeit
    00:00 +3°C° 0.4 mm 1 m/S 690 mmHg 89%
    01:00 +3°C° 0.2 mm 1 m/S 690 mmHg 90%
    02:00 +3°C° 0.2 mm 1 m/S 690 mmHg 90%
    03:00 +3°C° 0.2 mm 1 m/S 690 mmHg 91%
    04:00 +3°C° 0.1 mm 1 m/S 690 mmHg 91%
    05:00 +3°C° 0.1 mm 1 m/S 690 mmHg 92%
    06:00 +3°C° 0.1 mm 1 m/S 690 mmHg 93%
    07:00 +4°C° 0.1 mm 1 m/S 691 mmHg 90%
    08:00 +4°C° 0.1 mm 1 m/S 691 mmHg 88%
    09:00 +4°C° 0.1 mm 2 m/S 691 mmHg 86%
    10:00 +5°C° 0.1 mm 2 m/S 691 mmHg 84%
    11:00 +6°C° 0.1 mm 2 m/S 691 mmHg 82%
    12:00 +6°C° 0.1 mm 2 m/S 691 mmHg 81%
    13:00 +6°C° 0.1 mm 2 m/S 690 mmHg 82%
    14:00 +6°C° 0.1 mm 2 m/S 690 mmHg 84%
    15:00 +6°C° 0.1 mm 2 m/S 689 mmHg 86%
    16:00 +5°C° 0 mm 2 m/S 689 mmHg 87%
    17:00 +6°C° 0 mm 1 m/S 689 mmHg 88%
    18:00 +6°C° 0 mm 1 m/S 689 mmHg 90%
    19:00 +6°C° 0 mm 1 m/S 689 mmHg 91%
    20:00 +5°C° 0 mm 1 m/S 690 mmHg 92%
    21:00 +4°C° 0 mm 0 m/S 690 mmHg 93%
    22:00 +4°C° 0 mm 0 m/S 690 mmHg 91%
    23:00 +4°C° 0 mm 0 m/S 689 mmHg 89%

    27 März, Mittwoch

    Zeit Temperatur Niederschläge Wind Luftdruck Luftfeuchtigkeit
    00:00 +4°C° 0 mm 0 m/S 689 mmHg 88%
    01:00 +4°C° 0 mm 0 m/S 689 mmHg 88%
    02:00 +3°C° 0 mm 0 m/S 688 mmHg 88%
    03:00 +3°C° 0 mm 0 m/S 688 mmHg 88%
    04:00 +4°C° 0 mm 1 m/S 688 mmHg 86%
    05:00 +4°C° 0 mm 1 m/S 688 mmHg 84%
    06:00 +4°C° 0 mm 1 m/S 688 mmHg 82%
    07:00 +6°C° 0 mm 1 m/S 689 mmHg 78%
    08:00 +8°C° 0 mm 1 m/S 689 mmHg 73%
    09:00 +9°C° 0 mm 1 m/S 689 mmHg 69%
    10:00 +11°C° 0 mm 1 m/S 689 mmHg 67%
    11:00 +12°C° 0 mm 2 m/S 689 mmHg 65%
    12:00 +13°C° 0 mm 2 m/S 689 mmHg 62%
    13:00 +13°C° 0.1 mm 2 m/S 689 mmHg 62%
    14:00 +13°C° 0.1 mm 2 m/S 688 mmHg 62%
    15:00 +13°C° 0.1 mm 2 m/S 688 mmHg 62%
    16:00 +13°C° 0.1 mm 2 m/S 688 mmHg 67%
    17:00 +12°C° 0.1 mm 1 m/S 689 mmHg 71%
    18:00 +11°C° 0.1 mm 1 m/S 689 mmHg 76%
    19:00 +10°C° 0 mm 1 m/S 689 mmHg 75%
    20:00 +8°C° 0 mm 2 m/S 690 mmHg 74%
    21:00 +8°C° 0 mm 2 m/S 690 mmHg 73%
    22:00 +7°C° 0 mm 2 m/S 690 mmHg 70%
    23:00 +7°C° 0 mm 2 m/S 690 mmHg 68%

    28 März, Donnerstag

    Zeit Temperatur Niederschläge Wind Luftdruck Luftfeuchtigkeit
    00:00 +7°C° 0 mm 2 m/S 690 mmHg 65%
    01:00 +8°C° 0 mm 1 m/S 691 mmHg 67%
    02:00 +7°C° 0 mm 1 m/S 691 mmHg 69%
    03:00 +7°C° 0 mm 1 m/S 691 mmHg 71%
    04:00 +7°C° 0.2 mm 1 m/S 691 mmHg 73%
    05:00 +7°C° 0.2 mm 1 m/S 691 mmHg 75%
    06:00 +7°C° 0.2 mm 1 m/S 692 mmHg 77%
    07:00 +8°C° 0.4 mm 1 m/S 692 mmHg 78%
    08:00 +8°C° 0.4 mm 1 m/S 692 mmHg 79%
    09:00 +9°C° 0.4 mm 1 m/S 692 mmHg 80%
    10:00 +9°C° 0.2 mm 2 m/S 692 mmHg 79%
    11:00 +9°C° 0.2 mm 2 m/S 692 mmHg 78%
    12:00 +9°C° 0.2 mm 2 m/S 692 mmHg 77%
    13:00 +9°C° 0.5 mm 2 m/S 692 mmHg 80%
    14:00 +9°C° 0.5 mm 2 m/S 692 mmHg 83%
    15:00 +9°C° 0.5 mm 2 m/S 691 mmHg 85%
    16:00 +8°C° 1.8 mm 2 m/S 691 mmHg 88%
    17:00 +8°C° 1.8 mm 2 m/S 692 mmHg 91%
    18:00 +7°C° 1.8 mm 2 m/S 692 mmHg 94%
    19:00 +7°C° 1.5 mm 2 m/S 692 mmHg 94%
    20:00 +6°C° 1.5 mm 2 m/S 692 mmHg 94%
    21:00 +5°C° 1.5 mm 2 m/S 692 mmHg 93%
    22:00 +5°C° 0.3 mm 2 m/S 692 mmHg 93%
    23:00 +4°C° 0.3 mm 2 m/S 692 mmHg 94%

    29 März, Freitag

    Zeit Temperatur Niederschläge Wind Luftdruck Luftfeuchtigkeit
    00:00 +4°C° 0.3 mm 2 m/S 692 mmHg 94%
    01:00 +4°C° 0.1 mm 2 m/S 692 mmHg 94%
    02:00 +3°C° 0.1 mm 2 m/S 692 mmHg 94%
    03:00 +3°C° 0.1 mm 2 m/S 692 mmHg 93%
    04:00 +3°C° 0.2 mm 2 m/S 692 mmHg 93%
    05:00 +3°C° 0.2 mm 2 m/S 692 mmHg 93%
    06:00 +3°C° 0.2 mm 2 m/S 693 mmHg 93%
    07:00 +3°C° 0.2 mm 2 m/S 693 mmHg 92%
    08:00 +3°C° 0.2 mm 2 m/S 693 mmHg 92%
    09:00 +3°C° 0.2 mm 2 m/S 693 mmHg 91%
    10:00 +4°C° 0.1 mm 2 m/S 693 mmHg 89%
    11:00 +3°C° 0.1 mm 3 m/S 693 mmHg 88%
    12:00 +4°C° 0.1 mm 3 m/S 693 mmHg 87%
    13:00 +4°C° 0.1 mm 3 m/S 692 mmHg 87%
    14:00 +5°C° 0.1 mm 2 m/S 692 mmHg 87%
    15:00 +5°C° 0.1 mm 2 m/S 691 mmHg 88%
    16:00 +4°C° 0.1 mm 2 m/S 691 mmHg 89%
    17:00 +4°C° 0.1 mm 2 m/S 691 mmHg 90%
    18:00 +4°C° 0.1 mm 2 m/S 691 mmHg 92%
    19:00 +4°C° 0.1 mm 2 m/S 691 mmHg 92%
    20:00 +4°C° 0.1 mm 2 m/S 692 mmHg 93%
    21:00 +4°C° 0.1 mm 1 m/S 692 mmHg 94%
    22:00 +4°C° 0.1 mm 1 m/S 691 mmHg 95%
    23:00 +4°C° 0.1 mm 1 m/S 691 mmHg 95%
    Mehr zeigen